Regional Weather Roundup
Issued by NWS Binghamton, NY

Home | Current Version | Previous Version | Text Only | Print | Product List | Glossary On
Versions: 1 2 3 4 5 6 7 8 9 10 11 12 13 14 15 16 17 18 19 20 21 22 23 24 25 26 27 28 29 30 31 32 33 34 35 36 37 38 39 40 41 42 43 44 45 46 47 48 49 50
000
ASUS41 KBGM 191210
RWRBGM

REGIONAL WEATHER ROUNDUP
NATIONAL WEATHER SERVICE BINGHAMTON NY
800 AM EDT TUE SEP 19 2017

Note: "fair" indicates few or no clouds below 12,000 feet with no
significant weather and/or obstructions to visibility.

* = Station(s) that does not report precipitation, such as rain,
snow, etc, also no thunder or fog.

NYZ009-015>018-022>025-036-037-044>046-055>057-062-191300
...Central New York...

CITY           SKY/WX    TMP DP  RH WIND       PRES   REMARKS
Binghamton     MOSUNNY   59  59 100 E3        30.11S
Cortland       FAIR      59  59 100 CALM      30.11S
Dansville      SUNNY     61  58  90 SE6       30.07S
Elmira         CLOUDY    59  59 100 S3        30.08F FOG
Seneca Falls   SUNNY     64  64 100 S6        30.08S
Ithaca         SUNNY     63  60  90 E3        30.10F
Hamilton       CLOUDY    61  61 100 CALM      30.12S VSB 1
Hornell        FOG       59  57  94 CALM      30.12S VSB 0
Monticello     CLOUDY    63  61  93 NE6       30.12S
Oneonta          N/A     55  55 100 CALM      30.14S
Penn Yan       SUNNY     64  60  87 SW3       30.09R
Rome           CLOUDY    64  62  93 E6        30.11F
Sidney         FOG       57  57 100 CALM      30.12S VSB 3/4
Syracuse       MOSUNNY   63  62  97 E3        30.08R
$$

PAZ038>040-043-044-047-048-072-191300
...Northeast Pennsylvania...

CITY           SKY/WX    TMP DP  RH WIND       PRES   REMARKS
Hazleton         N/A     63  61  94 N3        30.12S FOG
Scranton       CLOUDY    66  63  90 NE6       30.09S
$$
&&
KEY
WCI = Wind Chill Index
VSB = Visibility
HX  = Heat Index
$$



USA.gov is the U.S. government's official web portal to all federal, state and local government web resources and services.